EW0184 Weather Reports


Display with metric or nautical units.
time (UTC)temp
F
wind
direction
speed
MPH
gust
MPH
rain 1hr
in
rain 24hr
in
rain mn
in
humidity
%
barometer
mb
20260508182521 86 37 1.0 7.0 0.00 0.00 0.00 13 1007.4
20260508182032 86 53 2.0 7.0 0.00 0.00 0.00 12 1007.6
20260508181524 86 354 2.0 6.0 0.00 0.00 0.00 12 1007.6
20260508181021 85 294 1.0 7.0 0.00 0.00 0.00 13 1007.7
20260508180531 85 174 0.0 7.0 0.00 0.00 0.00 14 1007.8
20260508180027 84 1 1.0 10.0 0.00 0.00 0.00 14 1007.8
20260508175522 83 106 2.0 9.0 0.00 0.00 0.00 14 1008.0
20260508175032 83 243 0.0 4.0 0.00 0.00 0.00 15 1008.0
20260508174529 84 6 0.0 4.0 0.00 0.00 0.00 15 1008.1
20260508174045 83 199 0.0 2.0 0.00 0.00 0.00 15 1008.1
20260508173532 81 266 0.0 6.0 0.00 0.00 0.00 15 1008.2
20260508173026 81 23 1.0 5.0 0.00 0.00 0.00 15 1008.3
20260508172522 81 16 1.0 6.0 0.00 0.00 0.00 16 1008.3
20260508172032 81 243 0.0 6.0 0.00 0.00 0.00 18 1008.4
20260508171530 81 46 1.0 5.0 0.00 0.00 0.00 16 1008.4
20260508171024 81 46 1.0 6.0 0.00 0.00 0.00 17 1008.5
20260508170533 81 290 0.0 5.0 0.00 0.00 0.00 19 1008.5
20260508170030 79 360 0.0 4.0 0.00 0.00 0.00 18 1008.6
20260508165525 79 46 1.0 5.0 0.00 0.00 0.00 19 1008.8
20260508165038 79 29 1.0 5.0 0.00 0.00 0.00 19 1008.8
20260508164528 78 276 0.0 3.0 0.00 0.00 0.00 21 1008.8
20260508164022 77 52 0.0 4.0 0.00 0.00 0.00 22 1008.9
20260508163534 76 8 0.0 3.0 0.00 0.00 0.00 22 1008.9
20260508163034 76 68 0.0 4.0 0.00 0.00 0.00 24 1009.0
20260508162526 75 51 0.0 5.0 0.00 0.00 0.00 23 1009.0
20260508162036 74 44 1.0 7.0 0.00 0.00 0.00 24 1009.1
20260508161531 74 321 1.0 7.0 0.00 0.00 0.00 25 1009.1
20260508161025 73 308 2.0 6.0 0.00 0.00 0.00 25 1009.2
20260508160538 73 39 2.0 7.0 0.00 0.00 0.00 25 1009.3
20260508160030 73 33 0.0 4.0 0.00 0.00 0.00 26 1009.3
20260508155528 72 58 1.0 4.0 0.00 0.00 0.00 26 1009.3
20260508155036 71 335 1.0 4.0 0.00 0.00 0.00 27 1009.2
20260508154626 71 40 0.0 3.0 0.00 0.00 0.00 30 1009.3
20260508154022 70 359 0.0 3.0 0.00 0.00 0.00 30 1009.3
20260508153534 69 47 0.0 3.0 0.00 0.00 0.00 29 1009.4
20260508153034 69 88 0.0 3.0 0.00 0.00 0.00 31 1009.3
20260508152523 68 349 0.0 4.0 0.00 0.00 0.00 32 1009.4
20260508152033 68 25 0.0 4.0 0.00 0.00 0.00 34 1009.5
20260508151528 67 37 1.0 3.0 0.00 0.00 0.00 33 1009.6
20260508151022 66 326 0.0 4.0 0.00 0.00 0.00 33 1009.6
20260508150534 65 287 1.0 4.0 0.00 0.00 0.00 34 1009.7
20260508150049 64 19 0.0 3.0 0.00 0.00 0.00 35 1009.7
20260508145545 64 329 0.0 3.0 0.00 0.00 0.00 36 1009.7
20260508145023 63 18 0.0 5.0 0.00 0.00 0.00 37 1009.7
20260508144533 62 46 0.0 5.0 0.00 0.00 0.00 37 1009.8
20260508144027 61 295 0.0 2.0 0.00 0.00 0.00 40 1009.8
20260508143529 61 248 0.0 5.0 0.00 0.00 0.00 40 1009.8
20260508143047 60 56 0.0 5.0 0.00 0.00 0.00 41 1009.8
20260508142528 59 338 0.0 3.0 0.00 0.00 0.00 43 1009.8
20260508142025 59 285 0.0 3.0 0.00 0.00 0.00 44 1009.7
20260508141535 58 8 0.0 3.0 0.00 0.00 0.00 43 1009.8
20260508141031 58 359 0.0 3.0 0.00 0.00 0.00 44 1009.8
20260508140526 57 352 0.0 4.0 0.00 0.00 0.00 45 1009.8
20260508140026 56 333 0.0 3.0 0.00 0.00 0.00 45 1009.8
20260508135531 56 51 0.0 4.0 0.00 0.00 0.00 46 1009.7
20260508135025 55 23 0.0 5.0 0.00 0.00 0.00 46 1009.6
20260508134524 54 358 0.0 5.0 0.00 0.00 0.00 48 1009.6
20260508134033 54 356 0.0 3.0 0.00 0.00 0.00 49 1009.5
20260508133528 53 13 0.0 3.0 0.00 0.00 0.00 50 1009.4
20260508133025 52 18 1.0 4.0 0.00 0.00 0.00 53 1009.4
20260508132520 52 8 0.0 2.0 0.00 0.00 0.00 55 1009.4
20260508132031 51 6 0.0 1.0 0.00 0.00 0.00 55 1009.4
20260508131527 50 6 0.0 1.0 0.00 0.00 0.00 56 1009.3
20260508131038 50 5 0.0 2.0 0.00 0.00 0.00 58 1009.2
20260508130529 49 5 0.0 2.0 0.00 0.00 0.00 61 1009.1
20260508130026 48 15 0.0 1.0 0.00 0.00 0.00 63 1009.1
20260508125522 48 19 0.0 1.0 0.00 0.00 0.00 66 1009.0
20260508125033 47 19 0.0 0.0 0.00 0.00 0.00 67 1008.9
20260508124526 47 18 0.0 0.0 0.00 0.00 0.00 69 1008.9
20260508124022 47 19 0.0 1.0 0.00 0.00 0.00 70 1008.8
20260508123532 46 19 0.0 1.0 0.00 0.00 0.00 72 1008.7
20260508123033 46 27 0.0 1.0 0.00 0.00 0.00 74 1008.6
20260508122524 45 27 0.0 1.0 0.00 0.00 0.00 75 1008.5
20260508122034 45 30 0.0 1.0 0.00 0.00 0.00 75 1008.5
20260508121530 45 30 0.0 1.0 0.00 0.00 0.00 75 1008.4
20260508121023 45 127 0.0 0.0 0.00 0.00 0.00 75 1008.4
20260508120533 45 127 0.0 0.0 0.00 0.00 0.00 74 1008.3
20260508120030 45 127 0.0 0.0 0.00 0.00 0.00 74 1008.2
20260508115524 45 127 0.0 0.0 0.00 0.00 0.00 73 1008.2
20260508115034 46 127 0.0 0.0 0.00 0.00 0.00 72 1008.1
20260508114532 46 127 0.0 0.0 0.00 0.00 0.00 71 1008.2
20260508114026 46 127 0.0 0.0 0.00 0.00 0.00 70 1008.1
20260508113521 47 127 0.0 0.0 0.00 0.00 0.00 68 1008.1
20260508113028 47 127 0.0 0.0 0.00 0.00 0.00 67 1008.1
20260508112509 48 127 0.0 0.0 0.00 0.00 0.00 67 1008.2
20260508112031 48 127 0.0 0.0 0.00 0.00 0.00 67 1008.1
20260508111526 48 127 0.0 0.0 0.00 0.00 0.00 68 1008.1
20260508111023 48 127 0.0 0.0 0.00 0.00 0.00 68 1008.2
20260508110531 48 127 0.0 0.0 0.00 0.00 0.00 69 1008.1
20260508110027 48 127 0.0 0.0 0.00 0.00 0.00 69 1008.1
20260508105525 48 127 0.0 1.0 0.00 0.00 0.00 69 1008.2
20260508105033 47 135 0.0 0.0 0.00 0.00 0.00 70 1008.1
20260508104528 47 136 0.0 0.0 0.00 0.00 0.00 70 1008.1
20260508104023 47 135 0.0 1.0 0.00 0.00 0.00 71 1008.1
20260508103534 47 136 0.0 1.0 0.00 0.00 0.00 72 1008.2
20260508103027 47 135 0.0 0.0 0.00 0.00 0.00 72 1008.1
20260508102535 47 136 0.0 0.0 0.00 0.00 0.00 71 1008.0
20260508102030 47 135 0.0 0.0 0.00 0.00 0.00 71 1008.1
20260508101525 47 136 0.0 0.0 0.00 0.00 0.00 70 1008.0
20260508101022 47 136 0.0 0.0 0.00 0.00 0.00 69 1008.0
20260508100531 48 136 0.0 0.0 0.00 0.00 0.00 69 1007.9
20260508100028 48 135 0.0 0.0 0.00 0.00 0.00 68 1007.9
20260508095522 48 136 0.0 0.0 0.00 0.00 0.00 66 1007.9
20260508095032 48 135 0.0 1.0 0.00 0.00 0.00 66 1007.9
20260508094528 48 136 0.0 1.0 0.00 0.00 0.00 65 1007.9
20260508094024 49 135 0.0 0.0 0.00 0.00 0.00 64 1007.9
20260508093533 49 136 0.0 0.0 0.00 0.00 0.00 64 1007.9
20260508093034 49 135 0.0 0.0 0.00 0.00 0.00 63 1007.9
20260508092522 49 135 0.0 0.0 0.00 0.00 0.00 63 1008.0
20260508092032 50 135 0.0 1.0 0.00 0.00 0.00 62 1008.0
20260508091533 50 135 0.0 1.0 0.00 0.00 0.00 63 1008.0
20260508091025 50 135 0.0 1.0 0.00 0.00 0.00 63 1008.1
20260508090533 49 136 0.0 1.0 0.00 0.00 0.00 64 1008.1
20260508090035 49 149 0.0 1.0 0.00 0.00 0.00 65 1008.2
20260508085527 49 150 0.0 1.0 0.00 0.00 0.00 65 1008.3
20260508085033 49 255 0.0 0.0 0.00 0.00 0.00 65 1008.4
20260508084530 50 173 0.0 1.0 0.00 0.00 0.00 63 1008.3
20260508084041 50 174 0.0 1.0 0.00 0.00 0.00 62 1008.5
20260508083531 50 120 0.0 0.0 0.00 0.00 0.00 61 1008.3
20260508083027 50 120 0.0 0.0 0.00 0.00 0.00 61 1008.2
20260508082535 50 121 0.0 0.0 0.00 0.00 0.00 60 1008.3
20260508082035 50 120 0.0 0.0 0.00 0.00 0.00 60 1008.3
20260508081529 50 122 0.0 0.0 0.00 0.00 0.00 60 1008.2
20260508081022 51 122 0.0 0.0 0.00 0.00 0.00 60 1008.3
20260508080535 51 123 0.0 1.0 0.00 0.00 0.00 60 1008.4
20260508080049 51 123 0.0 1.0 0.00 0.00 0.00 60 1008.4
20260508075525 51 123 0.0 0.0 0.00 0.00 0.00 61 1008.4
20260508075035 51 123 0.0 0.0 0.00 0.00 0.00 60 1008.5
20260508074527 51 123 0.0 0.0 0.00 0.00 0.00 59 1008.5
20260508074023 51 123 0.0 0.0 0.00 0.00 0.00 59 1008.5
20260508073533 52 123 0.0 0.0 0.00 0.00 0.00 58 1008.6
20260508073029 52 123 0.0 0.0 0.00 0.00 0.00 57 1008.7
20260508072523 52 123 0.0 0.0 0.00 0.00 0.00 56 1008.7
20260508072035 52 123 0.0 1.0 0.00 0.00 0.00 56 1008.7
20260508071531 53 123 0.0 1.0 0.00 0.00 0.00 54 1008.6
20260508071025 53 123 0.0 0.0 0.00 0.00 0.00 53 1008.6
20260508070535 53 123 0.0 0.0 0.00 0.00 0.00 53 1008.6
20260508070030 53 123 0.0 1.0 0.00 0.00 0.00 54 1008.6
20260508065530 53 123 0.0 1.0 0.00 0.00 0.00 53 1008.6
20260508065023 54 123 0.0 3.0 0.00 0.00 0.00 53 1008.7
20260508064543 53 115 0.0 3.0 0.00 0.00 0.00 53 1008.7
20260508064026 53 177 0.0 0.0 0.00 0.00 0.00 52 1008.5
20260508063537 53 177 0.0 0.0 0.00 0.00 0.00 52 1008.3
20260508063033 54 177 0.0 0.0 0.00 0.00 0.00 51 1008.3
20260508062528 54 177 0.0 0.0 0.00 0.00 0.00 51 1008.4
20260508062024 54 177 0.0 0.0 0.00 0.00 0.00 50 1008.3
20260508061537 54 178 0.0 0.0 0.00 0.00 0.00 51 1008.4
20260508061028 55 178 0.0 0.0 0.00 0.00 0.00 50 1008.4
20260508060522 55 177 0.0 0.0 0.00 0.00 0.00 49 1008.2
20260508060034 55 108 0.0 0.0 0.00 0.00 0.00 48 1008.2
20260508055529 55 107 0.0 0.0 0.00 0.00 0.00 50 1008.0
20260508055035 55 107 0.0 1.0 0.00 0.00 0.00 48 1008.0
20260508054542 56 107 0.0 1.0 0.00 0.00 0.00 50 1008.0
20260508054026 56 108 0.0 1.0 0.00 0.00 0.00 50 1008.0
20260508053536 56 108 0.0 1.0 0.00 0.00 0.00 49 1008.0
20260508053031 56 112 0.0 1.0 0.00 0.00 0.00 47 1008.0
20260508052527 56 112 0.0 0.0 0.00 0.00 0.00 48 1008.0
20260508052037 56 111 0.0 0.0 0.00 0.00 0.00 49 1007.9
20260508051539 56 111 0.0 0.0 0.00 0.00 0.00 48 1008.0
20260508051033 56 112 0.0 0.0 0.00 0.00 0.00 47 1008.0
20260508050528 57 111 0.0 0.0 0.00 0.00 0.00 48 1008.0
20260508050022 57 112 0.0 0.0 0.00 0.00 0.00 46 1008.1
20260508045531 57 111 0.0 0.0 0.00 0.00 0.00 44 1008.1
20260508045028 58 112 0.0 0.0 0.00 0.00 0.00 44 1008.2
20260508044542 58 112 0.0 0.0 0.00 0.00 0.00 44 1008.1
20260508044032 59 111 0.0 0.0 0.00 0.00 0.00 42 1008.2
20260508043524 59 112 0.0 0.0 0.00 0.00 0.00 41 1008.2
20260508043032 60 112 0.0 0.0 0.00 0.00 0.00 39 1008.1
20260508042527 60 112 0.0 0.0 0.00 0.00 0.00 38 1008.0
20260508042024 60 111 0.0 0.0 0.00 0.00 0.00 38 1008.1
20260508041533 60 112 0.0 0.0 0.00 0.00 0.00 38 1008.0
20260508041028 60 112 0.0 0.0 0.00 0.00 0.00 39 1008.1
20260508040526 60 112 0.0 1.0 0.00 0.00 0.00 41 1008.0
20260508040047 60 112 0.0 1.0 0.00 0.00 0.00 41 1007.9
20260508035528 60 111 0.0 0.0 0.00 0.00 0.00 40 1007.9
20260508035028 60 111 0.0 0.0 0.00 0.00 0.00 40 1007.8
20260508034542 61 112 0.0 0.0 0.00 0.00 0.00 39 1007.6
20260508034025 61 112 0.0 0.0 0.00 0.00 0.00 39 1007.3
20260508033522 62 112 0.0 0.0 0.00 0.00 0.00 38 1007.2
20260508033031 62 112 0.0 0.0 0.00 0.00 0.00 38 1007.1
20260508032527 62 111 0.0 0.0 0.00 0.00 0.00 37 1007.1
20260508032026 63 112 0.0 0.0 0.00 0.00 0.00 37 1007.0
20260508031534 63 112 0.0 0.0 0.00 0.00 0.00 37 1007.0
20260508031030 63 112 0.0 0.0 0.00 0.00 0.00 36 1007.0
20260508030524 64 112 0.0 0.0 0.00 0.00 0.00 35 1007.0
20260508030034 64 112 0.0 0.0 0.00 0.00 0.00 34 1006.9
20260508025532 64 112 0.0 0.0 0.00 0.00 0.00 33 1006.9
20260508025022 65 112 0.0 0.0 0.00 0.00 0.00 32 1006.9
20260508024532 65 111 0.0 0.0 0.00 0.00 0.00 30 1006.8
20260508024031 66 112 0.0 0.0 0.00 0.00 0.00 30 1006.7
20260508023536 66 112 0.0 0.0 0.00 0.00 0.00 29 1006.8
20260508023034 67 112 0.0 0.0 0.00 0.00 0.00 28 1006.7
20260508022530 67 112 0.0 0.0 0.00 0.00 0.00 28 1006.6
20260508022026 67 112 0.0 0.0 0.00 0.00 0.00 26 1006.6
20260508021521 68 112 0.0 0.0 0.00 0.00 0.00 26 1006.5
20260508021033 68 112 0.0 0.0 0.00 0.00 0.00 24 1006.5
20260508020527 69 112 0.0 0.0 0.00 0.00 0.00 23 1006.5
20260508020024 69 111 0.0 0.0 0.00 0.00 0.00 23 1006.4
20260508015532 70 111 0.0 0.0 0.00 0.00 0.00 22 1006.4
20260508015026 71 112 0.0 0.0 0.00 0.00 0.00 22 1006.4
20260508014523 71 111 0.0 0.0 0.00 0.00 0.00 22 1006.4
20260508014032 72 111 0.0 0.0 0.00 0.00 0.00 21 1006.3
20260508013526 73 112 0.0 0.0 0.00 0.00 0.00 21 1006.2
20260508013138 74 112 0.0 0.0 0.00 0.00 0.00 21 1006.3
20260508012522 75 112 0.0 0.0 0.00 0.00 0.00 19 1006.2
20260508012033 75 111 0.0 0.0 0.00 0.00 0.00 19 1006.2
20260508011529 76 112 0.0 1.0 0.00 0.00 0.00 18 1006.2
20260508011035 77 112 0.0 1.0 0.00 0.00 0.00 17 1006.2
20260508010530 77 177 0.0 0.0 0.00 0.00 0.00 15 1006.3
20260508010030 78 177 0.0 1.0 0.00 0.00 0.00 16 1006.3
20260508005523 78 217 0.0 1.0 0.00 0.00 0.00 16 1006.2
20260508005033 79 167 0.0 2.0 0.00 0.00 0.00 15 1006.4
20260508004531 79 195 0.0 3.0 0.00 0.00 0.00 14 1006.3
20260508004025 80 155 0.0 3.0 0.00 0.00 0.00 15 1006.4
20260508003534 80 138 0.0 2.0 0.00 0.00 0.00 16 1006.3
20260508003029 81 123 0.0 1.0 0.00 0.00 0.00 14 1006.3
20260508002527 81 124 0.0 3.0 0.00 0.00 0.00 14 1006.4
20260508002037 82 132 0.0 4.0 0.00 0.00 0.00 13 1006.5
20260508001532 82 148 1.0 6.0 0.00 0.00 0.00 14 1006.5
20260508001026 83 214 0.0 3.0 0.00 0.00 0.00 14 1006.5
20260508000524 83 217 0.0 5.0 0.00 0.00 0.00 14 1006.5
20260508000033 83 143 2.0 5.0 0.00 0.00 0.00 13 1006.6
20260507235526 83 257 0.0 2.0 0.00 0.00 0.00 15 1006.6
20260507235024 83 112 0.0 4.0 0.00 0.00 0.00 14 1006.7
20260507234546 83 222 1.0 5.0 0.00 0.00 0.00 13 1006.6
20260507234032 84 121 0.0 5.0 0.00 0.00 0.00 14 1006.7
20260507233526 84 261 1.0 3.0 0.00 0.00 0.00 14 1006.7
20260507233039 84 106 0.0 3.0 0.00 0.00 0.00 13 1006.8
20260507232529 83 161 0.0 4.0 0.00 0.00 0.00 12 1006.8
20260507232024 83 209 1.0 4.0 0.00 0.00 0.00 13 1006.7
20260507231533 83 118 0.0 6.0 0.00 0.00 0.00 13 1006.8
20260507231028 83 239 0.0 6.0 0.00 0.00 0.00 14 1006.8
20260507230523 83 146 1.0 5.0 0.00 0.00 0.00 14 1006.9
20260507230035 82 91 0.0 5.0 0.00 0.00 0.00 13 1006.9
20260507225534 83 84 2.0 6.0 0.00 0.00 0.00 13 1007.0
20260507225026 84 110 1.0 6.0 0.00 0.00 0.00 13 1007.0
20260507224536 85 201 0.0 6.0 0.00 0.00 0.00 13 1007.0
20260507224030 85 188 1.0 4.0 0.00 0.00 0.00 14 1007.1
20260507223535 84 143 0.0 5.0 0.00 0.00 0.00 13 1007.1
20260507223023 85 110 0.0 5.0 0.00 0.00 0.00 13 1007.1
20260507222535 85 146 0.0 5.0 0.00 0.00 0.00 13 1007.1
20260507222029 85 162 1.0 5.0 0.00 0.00 0.00 13 1007.1
20260507221531 85 224 1.0 5.0 0.00 0.00 0.00 15 1007.2
20260507221034 84 265 0.0 6.0 0.00 0.00 0.00 15 1007.2
20260507220530 84 140 1.0 7.0 0.00 0.00 0.00 14 1007.3
20260507220034 84 172 2.0 8.0 0.00 0.00 0.00 14 1007.3
20260507215535 85 120 2.0 8.0 0.00 0.00 0.00 14 1007.4
20260507215029 85 214 1.0 7.0 0.00 0.00 0.00 14 1007.5
20260507214525 85 133 1.0 5.0 0.00 0.00 0.00 14 1007.5
20260507214021 84 139 1.0 6.0 0.00 0.00 0.00 15 1007.6
20260507213531 84 103 0.0 5.0 0.00 0.00 0.00 15 1007.7
20260507213029 84 129 1.0 7.0 0.00 0.00 0.00 15 1007.7
20260507212533 84 111 2.0 7.0 0.00 0.00 0.00 15 1007.6
20260507212028 84 129 0.0 1.0 0.00 0.00 0.00 14 1007.7
20260507211524 85 25 0.0 3.0 0.00 0.00 0.00 14 1007.8
20260507211033 85 211 0.0 5.0 0.00 0.00 0.00 16 1008.1
20260507210529 85 205 0.0 5.0 0.00 0.00 0.00 16 1008.1
20260507210030 84 231 0.0 4.0 0.00 0.00 0.00 16 1008.0
20260507205539 84 252 0.0 3.0 0.00 0.00 0.00 15 1008.1
20260507205030 83 204 0.0 3.0 0.00 0.00 0.00 16 1008.1
20260507204524 83 114 1.0 3.0 0.00 0.00 0.00 16 1008.2
20260507204036 84 110 1.0 4.0 0.00 0.00 0.00 16 1008.3
20260507203528 84 115 1.0 3.0 0.00 0.00 0.00 16 1008.4
20260507203038 83 202 1.0 7.0 0.00 0.00 0.00 17 1008.4
20260507202531 82 159 2.0 7.0 0.00 0.00 0.00 17 1008.5
20260507202028 83 143 2.0 6.0 0.00 0.00 0.00 17 1008.7
20260507201535 83 231 2.0 7.0 0.00 0.00 0.00 18 1008.8
20260507201032 82 108 1.0 7.0 0.00 0.00 0.00 19 1008.7
20260507200526 82 143 1.0 5.0 0.00 0.00 0.00 18 1008.9
20260507200022 82 108 1.0 5.0 0.00 0.00 0.00 18 1009.0
20260507195533 82 110 0.0 5.0 0.00 0.00 0.00 18 1009.0
20260507195027 83 98 2.0 5.0 0.00 0.00 0.00 19 1009.2
20260507194533 82 224 0.0 4.0 0.00 0.00 0.00 20 1009.3
20260507194033 81 5 0.0 7.0 0.00 0.00 0.00 19 1009.4
20260507193528 82 165 2.0 5.0 0.00 0.00 0.00 19 1009.4
20260507193021 82 226 1.0 5.0 0.00 0.00 0.00 20 1009.6
20260507192530 81 105 1.0 5.0 0.00 0.00 0.00 21 1009.7
20260507192028 80 248 0.0 4.0 0.00 0.00 0.00 21 1009.7
20260507191523 80 129 1.0 4.0 0.00 0.00 0.00 20 1009.9
20260507191034 80 93 0.0 4.0 0.00 0.00 0.00 20 1010.0
20260507190528 80 110 1.0 5.0 0.00 0.00 0.00 22 1010.1
20260507190037 81 113 1.0 5.0 0.00 0.00 0.00 20 1010.1
20260507185534 81 149 1.0 4.0 0.00 0.00 0.00 21 1010.3
20260507185032 82 162 1.0 5.0 0.00 0.00 0.00 21 1010.4
20260507184544 81 271 0.0 5.0 0.00 0.00 0.00 21 1010.4
20260507184031 81 260 0.0 3.0 0.00 0.00 0.00 22 1010.4
20260507183526 80 219 0.0 3.0 0.00 0.00 0.00 23 1010.5
20260507183041 80 218 0.0 6.0 0.00 0.00 0.00 22 1010.6